Home   Weather   Tampere   Past weeks

Flag for Finland Past Weather in Tampere, Finland — Yesterday and Last 2 Weeks

Now
18 °F

Clear.


Feels Like: 9 °F
Forecast: 13 / 35 °F
Wind: 6 mph from Northwest

Location: Tampere / Pirkkala

Current Time: Dec 3, 2016 at 8:00:35 pm

Latest Report: Dec 3, 2016 at 7:20 pm


Visibility: 10 mi

Pressure: 30.04 "Hg

Humidity: 93%

Dew Point: 16 °F

Location of TampereLocation

Past Weather in Tampere — Graph

°F

Tampere Temperature Yesterday

Maximum temperature yesterday: 28 °F (at 9:50 am)
Minimum temperature yesterday: 27 °F (at 12:20 am)
Average temperature yesterday: 28 °F

High & Low Weather Summary for the Past Weeks

 TemperatureHumidityPressure
High45 °F (Nov 21, 11:50 am)100% (Nov 18, 7:20 pm)30.09 "Hg (Nov 18, 7:20 pm)
Low9 °F (Nov 29, 8:20 am)68% (Nov 27, 9:50 pm)29.06 "Hg (Nov 26, 2:50 pm)
Average32 °F90%29.70 "Hg
* Reported Nov 18 6:20 pm — Dec 3 6:50 pm, Tampere, Weather by CustomWeather, © 2016

Note: Actual official high and low records may vary slightly from our data, if they occured in-between our weather recording intervals... More about our weather records

Advertising

Tampere Weather History for the Previous 24 Hours

Scroll right to see more
 ConditionsComfort  
Time TempWeatherWind HumidityBarometerVisibility
6:50 pm
Sat, Dec 3
18 °FClear.6 mph93%30.04 "Hg10 mi
6:20 pm19 °FClear.2 mph86%30.04 "Hg10 mi
5:50 pm19 °FClear.3 mph79%30.01 "Hg10 mi
5:20 pm19 °FClear.3 mph86%30.01 "Hg10 mi
4:50 pm19 °FClear.7 mph86%30.01 "Hg10 mi
4:20 pm19 °FClear.8 mph86%29.98 "Hg10 mi
3:50 pm21 °FClear.7 mph80%29.98 "Hg10 mi
3:20 pm21 °FClear.7 mph80%29.98 "Hg10 mi
2:50 pm23 °FSunny.7 mph74%29.95 "Hg10 mi
2:20 pm23 °FSunny.10 mph74%29.95 "Hg10 mi
1:50 pm25 °FSunny.7 mph74%29.95 "Hg10 mi
1:20 pm23 °FSunny.7 mph80%29.92 "Hg10 mi
12:50 pm23 °FSunny.7 mph80%29.92 "Hg10 mi
12:20 pm23 °FSunny.8 mph80%29.92 "Hg10 mi
11:50 am25 °FBroken clouds.8 mph80%29.92 "HgN/A
11:20 am25 °FPartly sunny.9 mph80%29.89 "HgN/A
10:50 am25 °FCloudy.9 mph80%29.89 "HgN/A
10:20 am25 °FLight snow. Broken clouds.9 mph80%29.86 "HgN/A
9:50 am25 °FLight snow. Broken clouds.9 mph86%29.86 "HgN/A
9:20 am25 °FLight snow. Mostly cloudy.9 mph80%29.86 "HgN/A
8:50 am25 °FLight snow. Mostly cloudy.8 mph80%29.83 "HgN/A
8:20 am25 °FLight snow. Passing clouds.9 mph80%29.83 "HgN/A
7:50 am23 °FLight snow. Passing clouds.9 mph86%29.83 "HgN/A
7:20 am25 °FLight snow. Passing clouds.10 mph80%29.83 "HgN/A
6:50 am23 °FOvercast.10 mph86%29.83 "HgN/A
6:20 am23 °FMostly cloudy.9 mph86%29.83 "HgN/A
5:50 am23 °FMostly cloudy.9 mph80%29.83 "HgN/A
5:20 am23 °FMostly cloudy.9 mph80%29.83 "HgN/A
4:50 am23 °FPassing clouds.8 mph80%29.83 "HgN/A
4:20 am23 °FPassing clouds.10 mph80%29.80 "HgN/A
3:50 am23 °FPassing clouds.9 mph80%29.80 "HgN/A
3:20 am23 °FPassing clouds.9 mph80%29.80 "HgN/A
2:50 am23 °FPassing clouds.8 mph80%29.80 "HgN/A
1:50 am25 °FPassing clouds.9 mph80%29.80 "HgN/A
1:20 am25 °FPassing clouds.13 mph80%29.80 "HgN/A
12:50 am27 °FPassing clouds.12 mph74%29.77 "HgN/A
12:20 am27 °FPassing clouds.10 mph74%29.77 "HgN/A
11:50 pm
Fri, Dec 2
27 °FPartly cloudy.12 mph74%29.77 "HgN/A
11:20 pm27 °FPassing clouds.12 mph74%29.77 "HgN/A
10:50 pm27 °FPartly cloudy.10 mph80%29.77 "HgN/A
10:20 pm28 °FPassing clouds.9 mph74%29.77 "HgN/A
9:50 pm28 °FMostly cloudy.9 mph74%29.74 "HgN/A
9:20 pm28 °FPartly cloudy.9 mph80%29.74 "HgN/A
8:50 pm28 °FOvercast.9 mph80%29.74 "HgN/A
8:20 pm28 °FPassing clouds.8 mph86%29.71 "HgN/A
Weather by CustomWeather, © 2016

See weather overviewHow to use our weather pages